This is the latest recevied weather packets stored in our database for station/object K7UHP. If no packets are shown the sender has not sent any weather packets the latest 1 day(s).
| Time | Temp. | Humidity | Pressure | Rain* | Wind** | Luminosity | Snow |
|---|---|---|---|---|---|---|---|
| 1778104181 | 16.67° C | 28% | 1019.1 hPa | 0 mm | - | - | - |
| 1778103580 | 17.22° C | 23% | 1019.1 hPa | 0 mm | - | - | - |
| 1778102379 | 16.67° C | 27% | 1019.3 hPa | 0 mm | - | - | - |
| 1778099376 | 16.11° C | 28% | 1019.3 hPa | 0 mm | - | - | - |
| 1778097574 | 15.56° C | 27% | 1019.5 hPa | 0 mm | - | - | - |
| 1778092052 | 13.89° C | 24% | 1019.5 hPa | 0 mm | - | - | - |
| 1778085894 | 12.22° C | 32% | 1019.4 hPa | 0 mm | - | - | - |
| 1778085264 | 11.67° C | 36% | 1019.3 hPa | 0 mm | - | - | - |
| 1778084664 | 11.11° C | 39% | 1019.2 hPa | 0 mm | - | - | - |
| 1778084034 | 11.11° C | 38% | 1019.2 hPa | 0 mm | - | - | - |
| 1778083404 | 11.67° C | 39% | 1019.2 hPa | 0 mm | - | - | - |
| 1778082774 | 11.11° C | 40% | 1019.1 hPa | 0 mm | - | - | - |
| 1778082174 | 11.11° C | 41% | 1018.9 hPa | 0 mm | - | - | - |
| 1778081544 | 10.56° C | 43% | 1018.9 hPa | 0 mm | - | - | - |
| 1778080944 | 10.56° C | 44% | 1018.8 hPa | 0 mm | - | - | - |
| 1778080314 | 10.56° C | 48% | 1018.8 hPa | 0 mm | - | - | - |
| 1778079714 | 10.56° C | 45% | 1018.7 hPa | 0 mm | - | - | - |
| 1778079084 | 10.56° C | 44% | 1018.6 hPa | 0 mm | - | - | - |
| 1778078454 | 11.11° C | 49% | 1018.5 hPa | 0 mm | - | - | - |
| 1778077854 | 10° C | 50% | 1018.4 hPa | 0 mm | - | - | - |
| 1778077224 | 10.56° C | 50% | 1018.3 hPa | 0 mm | - | - | - |
| 1778076594 | 9.44° C | 55% | 1018.3 hPa | 0 mm | - | - | - |
| 1778058683 | 7.78° C | 54% | 1013.8 hPa | 0 mm | - | - | - |
| 1778056823 | 7.22° C | 75% | 1013.5 hPa | 8.38 mm | - | - | - |
| 1778054993 | 5.56° C | 86% | 1013.3 hPa | 8.38 mm | - | - | - |
* Rain latest hour (hover to see other rain measurements)
** Current wind speed in m/s (hover to see current wind gust speed)